{"data":{"norad_id":60586,"epoch":"2026-05-25T03:46:00.191424Z","epoch_age_seconds":58106,"freshness":"FRESH","line1":"1 60586U 24150D   26145.15694666  .00000979  00000+0  40108-4 0  9999","line2":"2 60586  53.1609 310.7941 0001028  95.4617 264.6502 15.34390615 99762","mean_motion":15.34390615,"eccentricity":0.0001028,"inclination_deg":53.1609,"raan_deg":310.7941,"arg_perigee_deg":95.4617,"mean_anomaly_deg":264.6502,"bstar":4.0108e-5,"rev_number":9976,"period_min":93.848332095019,"perigee_km":462.02789330285,"apogee_km":463.43437579131,"semimajor_km":6840.8681345471,"source":"CELESTRAK","updated_at":"2026-05-25T13:38:19.278595Z"}}